Starlink 32770

operational
NORAD ID: 62741 Int'l Des: 2025-014 Owner: SPXS Country: US Constellation: starlink
LEOCIRCULAR

About Starlink 32770

Description loading...

Live Position

Loading 3D Globe...

Upcoming Passes

Altitude History

Altitude vs Time

uPlot chart will show altitude changes over time

Two-Line Element Set

1 62741U 25014G 25303.98798195 .00051793 00000-0 18766-2 0 9996
2 62741 42.9999 166.6682 0003664 247.4498 112.5966 15.27608707 43422
Epoch: Oct 30, 2025 • Age: 17 hours

Current Status

Altitude 489.0 km
Velocity 7.62 km/s
Sub-Earth Point -31.32°S, 96.92°E
Launch Date Jan 21, 2025
Age 0.7 years
Type internet

Technical Details

Classification Payload
Mass 730.00 kg
Dry Mass 700.00 kg
Total Mass 730.00 kg
Length 0.30 m
Diameter 4.10 m
Span 29.00 m
Shape Box + pan
Manufacturer SPXS
Bus Type Starlink V2M
Phase Status In Orbit
Owner/State SPXS/US

Large Constellations

Loading constellations...